Date,TemperatureHighF,TemperatureAvgF,TemperatureLowF,DewpointHighF,DewpointAvgF,DewpointLowF,HumidityHigh,HumidityAvg,HumidityLow,PressureMaxIn,PressureMinIn,WindSpeedMaxMPH,WindSpeedAvgMPH,GustSpeedMaxMPH,PrecipitationSumIn
2013-1-11,77.1,69.0,57.1,62.4,58.6,51.7,82,70,55,30.25,30.13,6,1,7,0.01
2013-1-12,80.0,65.6,55.2,60.5,55.2,49.1,82,70,48,30.17,30.08,3,0,6,0.01
2013-1-13,79.1,64.1,52.7,61.6,54.0,46.7,82,71,50,30.14,30.04,5,1,9,0.01
2013-1-14,81.4,66.5,54.8,61.9,55.7,48.8,82,69,45,30.16,30.06,6,1,9,0.01
2013-1-15,79.6,66.3,51.9,59.5,54.2,45.6,82,67,43,30.13,30.01,7,1,13,0.00
2013-1-16,81.4,66.1,54.0,59.6,54.5,48.0,82,68,43,30.04,29.91,6,1,13,0.00
2013-1-17,76.4,56.2,40.9,60.1,47.4,30.6,82,73,55,30.10,29.75,12,2,23,0.09
2013-1-18,57.8,44.7,31.0,35.9,27.9,13.9,78,57,19,30.46,30.10,7,2,14,0.00
2013-1-19,64.3,47.6,33.6,45.5,34.0,24.7,78,60,42,30.44,30.21,4,1,6,0.00
2013-1-20,68.3,50.1,33.8,45.4,35.2,28.0,81,61,27,30.21,30.05,5,1,12,0.00
2013-3-30,76.9,69.4,57.1,46.1,39.6,32.0,63,37,20,30.18,30.03,8,3,17,0.00
2013-3-31,79.3,63.9,53.8,60.2,50.6,44.6,76,63,39,30.06,29.88,8,2,17,0.10
2013-4-1,79.6,67.6,56.9,59.3,54.7,48.9,80,65,40,29.94,29.84,9,2,16,0.17
2013-4-2,77.4,61.1,46.1,50.6,42.9,34.1,81,57,22,30.11,29.94,6,1,13,0.00
2013-4-3,71.0,58.6,46.9,53.3,46.4,40.7,81,66,43,30.15,30.03,5,2,13,0.08
2013-4-4,56.0,52.0,48.2,50.3,46.0,42.3,81,80,78,30.15,29.85,5,2,12,0.29
2013-4-5,48.2,47.2,46.1,42.3,41.3,40.3,80,80,80,29.91,29.88,2,0,6,0.03
2013-4-14,68.7,65.3,59.9,59.6,57.8,53.6,81,77,69,30.04,29.84,6,1,14,1.54
2013-4-15,76.3,65.9,58.0,62.5,57.2,52.1,82,74,58,30.13,29.86,5,1,15,0.01
2013-4-16,80.7,68.6,57.9,62.9,57.1,51.4,81,68,49,30.21,30.11,5,1,10,0.00
2013-4-17,82.1,68.7,57.6,62.7,55.8,50.1,81,65,38,30.20,30.09,5,1,13,0.01
2013-4-18,83.3,70.7,60.4,64.9,59.1,53.5,81,68,43,30.09,29.97,8,2,17,0.00
2013-4-19,87.0,73.0,57.5,66.9,62.4,50.4,80,71,44,30.00,29.80,10,3,20,0.93
2013-4-20,64.9,55.8,48.7,50.4,45.4,42.6,80,69,48,30.14,29.98,4,2,10,0.37
2013-4-23,74.0,65.9,55.4,54.0,50.3,45.8,77,59,39,30.15,30.07,4,2,10,0.00
2013-4-24,81.2,64.7,48.7,61.3,51.7,42.5,81,65,38,30.15,30.01,5,1,9,0.00
2013-4-25,83.3,70.6,59.1,64.4,57.1,50.2,80,64,41,30.20,30.06,4,1,9,0.00
2013-4-26,77.5,65.1,53.2,56.2,48.1,29.8,80,58,19,30.33,30.17,6,2,13,0.00
2013-4-27,78.0,64.7,51.2,56.9,49.7,44.6,80,61,34,30.29,30.17,6,2,11,0.00
2013-4-28,78.5,66.5,57.2,60.5,55.0,50.1,80,67,48,30.18,30.00,8,2,14,0.00
2013-4-29,80.7,69.5,63.2,64.5,59.7,56.8,80,72,57,29.97,29.88,4,1,17,1.44
2013-4-30,78.9,68.5,62.1,63.6,58.8,56.0,82,72,51,30.06,29.93,4,1,10,0.00
2013-5-1,71.2,65.1,61.8,59.0,56.0,54.3,80,73,58,30.14,30.01,7,3,14,0.01
2013-5-2,73.3,66.9,64.0,63.5,58.7,56.2,79,75,66,30.10,30.02,7,4,16,0.21
2013-5-3,71.1,65.3,61.4,59.4,55.8,53.2,75,72,62,30.03,29.93,8,5,16,0.00
2013-5-4,63.2,60.5,58.1,56.2,53.7,51.3,80,78,76,29.90,29.88,6,4,15,0.12
2013-6-23,83.2,79.1,75.2,72.4,70.2,67.1,80,74,68,30.14,30.08,3,0,15,1.01
2013-6-24,88.9,78.4,69.9,73.1,68.8,63.4,82,73,51,30.19,30.09,6,1,11,0.07
2013-6-25,88.1,78.7,71.4,73.6,69.3,64.9,81,74,56,30.15,30.03,4,1,9,0.00
2013-7-21,83.5,78.3,73.0,74.8,70.4,66.8,81,77,72,30.05,29.92,5,1,12,0.21
2013-7-23,89.4,83.0,74.4,73.6,70.9,66.7,78,67,56,29.87,29.80,8,2,17,0.04
2013-7-24,74.4,73.3,72.6,67.1,66.5,66.0,80,79,78,29.84,29.77,1,0,5,0.00
2013-7-25,75.9,75.7,75.5,67.4,67.4,67.2,76,76,75,29.95,29.95,2,0,4,0.38
2013-7-29,82.7,80.7,78.2,72.1,71.4,70.4,78,74,71,30.07,30.06,1,1,18,0.00
2013-8-10,78.2,77.8,77.5,69.2,69.0,68.7,75,74,74,30.09,30.09,0,0,5,0.00
2013-8-11,77.5,76.1,74.2,69.6,68.8,67.4,80,78,76,30.11,30.08,0,0,1,0.00
2013-8-18,79.3,77.9,76.4,72.1,70.9,69.8,80,79,78,30.11,30.05,2,0,5,0.79
2013-8-19,89.9,78.2,73.5,74.9,70.1,67.0,82,77,56,30.10,29.97,8,1,18,0.52
2013-8-20,85.5,76.8,72.6,75.0,69.8,66.4,82,79,68,30.12,30.02,2,0,5,0.51
2013-8-21,86.8,78.5,72.8,75.1,70.2,66.6,82,76,64,30.17,30.07,5,0,10,0.01
2013-8-22,89.8,79.4,73.5,73.2,69.3,66.9,82,72,53,30.13,30.00,3,0,7,0.03
2013-8-23,89.0,78.4,69.6,73.1,67.0,63.2,81,70,47,30.04,29.95,3,0,6,0.01
2013-9-2,91.3,81.3,72.5,74.4,69.3,65.2,79,68,52,29.92,29.81,6,1,14,0.13
2013-9-3,90.4,79.5,70.4,75.1,69.5,63.9,81,72,53,29.96,29.83,6,1,14,0.00
2013-9-4,92.1,80.5,72.0,76.2,69.6,65.1,81,70,51,30.02,29.91,5,0,10,0.13
2013-9-8,76.9,75.2,73.8,68.0,66.7,65.8,76,75,74,29.94,29.92,0,0,6,0.00
2013-9-9,87.3,75.7,70.6,70.1,66.3,63.5,80,73,54,30.03,29.94,3,0,7,0.00
2013-9-13,91.3,82.5,72.7,72.5,68.4,65.4,78,63,45,29.83,29.72,4,1,9,0.00
2013-9-14,87.0,76.1,67.5,70.1,64.7,57.6,80,68,51,30.00,29.77,6,1,12,0.00
2013-9-15,89.2,77.9,69.8,73.2,67.8,63.3,81,72,54,30.09,29.99,5,1,10,0.00
2013-9-16,91.2,78.7,69.7,73.5,67.5,63.0,81,70,46,30.09,29.97,6,0,11,0.01
2013-9-21,82.2,77.0,73.3,70.1,67.9,66.4,79,74,65,29.75,29.71,6,0,14,0.26
2013-9-22,73.3,73.1,72.9,66.9,66.6,66.2,81,80,79,29.72,29.68,1,0,4,0.19
2013-11-2,72.9,63.7,51.3,54.3,49.1,44.7,78,61,41,29.95,29.79,4,1,12,0.03
2013-11-3,67.3,53.2,42.8,44.6,39.8,31.4,81,64,28,30.24,29.94,5,1,13,0.01
2013-11-4,67.5,54.1,43.2,46.3,39.4,33.3,79,60,35,30.37,30.23,8,2,18,0.00
2013-11-5,70.4,56.8,45.0,53.9,44.4,36.1,79,64,45,30.38,30.26,7,3,15,0.02
2013-11-6,76.4,63.0,54.7,62.2,54.2,48.3,80,74,58,30.26,30.06,5,2,13,0.00
2013-11-7,76.8,62.7,53.6,63.4,54.4,44.6,82,75,60,30.06,29.94,3,0,11,0.00
2013-11-8,62.7,51.2,37.6,44.5,35.6,29.6,77,58,30,30.26,30.04,7,1,16,0.00
2013-11-9,68.1,52.5,35.2,51.2,41.5,29.0,80,67,48,30.30,30.19,3,1,10,0.00
2013-11-10,72.0,57.1,47.5,52.9,46.5,41.0,81,69,37,30.24,30.12,3,0,9,0.00
2013-11-11,69.3,54.5,42.4,52.3,43.2,36.3,80,67,45,30.24,30.13,4,1,11,0.01
2013-11-12,73.3,55.6,41.2,55.3,41.5,29.3,81,62,28,30.29,29.99,12,1,26,0.00
2013-11-13,51.8,40.2,28.5,30.7,20.5,7.2,75,49,18,30.49,30.28,9,3,25,0.00
2013-11-30,58.3,51.1,47.6,37.6,35.8,34.1,66,56,41,30.34,30.27,3,1,11,0.00
2013-12-1,57.1,51.0,44.4,47.2,41.8,35.3,79,71,62,30.28,29.99,2,0,9,0.00
2013-12-2,65.9,53.4,43.8,48.4,42.6,36.8,81,69,36,29.99,29.80,3,0,10,0.00
2013-12-3,66.3,55.2,43.4,55.6,47.4,36.9,81,75,64,29.95,29.85,3,0,10,0.00
2013-12-4,76.0,62.9,53.6,61.6,54.6,47.2,81,75,58,30.06,29.92,3,0,11,0.00
2013-12-5,76.3,65.8,55.5,64.7,57.9,49.4,82,76,63,30.12,30.03,5,0,12,0.00
2013-12-6,82.5,70.3,63.2,66.0,60.4,56.4,81,72,52,30.11,30.02,6,1,17,0.00
2013-12-7,77.0,68.7,55.2,66.5,60.9,49.1,81,76,68,30.25,30.05,7,1,15,0.32
2013-12-8,55.2,49.7,47.9,49.1,44.0,42.3,82,81,80,30.29,30.18,3,2,10,0.05
2013-12-9,69.5,56.3,47.9,61.4,50.5,42.3,83,81,75,30.20,30.02,1,0,5,0.05
2013-12-10,66.5,62.1,57.7,60.8,56.4,51.9,82,81,81,30.02,29.98,3,1,9,0.00
2013-12-25,50.9,46.4,40.2,32.8,30.5,28.4,68,54,47,30.38,30.29,4,1,11,0.00
2013-12-26,50.9,44.8,40.4,41.0,33.7,28.1,79,65,57,30.31,30.22,3,0,10,0.00
2013-12-27,57.6,48.2,41.3,39.0,35.4,31.3,79,63,41,30.39,30.27,5,1,16,0.00
2013-12-28,58.6,47.8,36.8,45.7,38.0,28.9,80,69,54,30.35,29.98,4,1,11,0.01
2013-12-29,67.7,59.5,51.5,62.0,53.9,45.5,83,82,80,29.99,29.81,8,2,19,0.71